UAL233 KLAX-KSFO

Flight info

Callsign UAL233
Flight time 0h 55m
Altitude 30000
Route SUMMR2 STOKD SERFR SERFR4
Aircraft B738/M-SDE2E3FGHIRWXY/LB1

Departure

Time 2026-04-26 22:42
Airport Los Angeles International Airport (KLAX)

Arrival

Time 2026-04-26 23:37
Airport San Francisco International Airport (KSFO)
Time Latitude Longitude Altitude Speed Heading
2026-04-26 22:12 33.94203 -118.40033 92 ft 0 kts 70°
2026-04-26 22:26 33.94198 -118.40048 93 ft 4 kts 70°
2026-04-26 22:26 33.94191 -118.40072 91 ft 4 kts 90°
2026-04-26 22:27 33.94199 -118.40091 92 ft 4 kts 170°
2026-04-26 22:27 33.94189 -118.40090 90 ft 4 kts 173°
2026-04-26 22:27 33.94175 -118.40088 93 ft 0 kts 173°
2026-04-26 22:32 33.94168 -118.40087 91 ft 2 kts 173°
2026-04-26 22:32 33.94151 -118.40085 92 ft 3 kts 174°
2026-04-26 22:32 33.94133 -118.40082 92 ft 3 kts 173°
2026-04-26 22:32 33.94113 -118.40079 94 ft 3 kts 173°
2026-04-26 22:33 33.94083 -118.40075 92 ft 5 kts 174°
2026-04-26 22:33 33.93989 -118.40059 94 ft 8 kts 172°
2026-04-26 22:33 33.93935 -118.40051 95 ft 7 kts 174°
2026-04-26 22:34 33.93886 -118.40052 96 ft 7 kts 204°
2026-04-26 22:34 33.93868 -118.40106 97 ft 8 kts 264°
2026-04-26 22:34 33.93861 -118.40177 97 ft 10 kts 263°
2026-04-26 22:34 33.93850 -118.40273 96 ft 13 kts 262°
2026-04-26 22:35 33.93838 -118.40390 98 ft 16 kts 263°
2026-04-26 22:35 33.93823 -118.40532 96 ft 18 kts 262°
2026-04-26 22:35 33.93809 -118.40678 95 ft 17 kts 263°
2026-04-26 22:35 33.93794 -118.40823 94 ft 18 kts 262°
2026-04-26 22:36 33.93782 -118.40945 92 ft 12 kts 263°
2026-04-26 22:36 33.93769 -118.41054 92 ft 14 kts 261°
2026-04-26 22:36 33.93805 -118.41152 94 ft 15 kts 349°
2026-04-26 22:36 33.93923 -118.41171 93 ft 19 kts 352°
2026-04-26 22:37 33.94067 -118.41192 92 ft 23 kts 353°
2026-04-26 22:37 33.94233 -118.41215 92 ft 23 kts 354°
2026-04-26 22:37 33.94384 -118.41239 93 ft 22 kts 353°
2026-04-26 22:37 33.94540 -118.41262 93 ft 19 kts 353°
2026-04-26 22:38 33.94678 -118.41284 93 ft 20 kts 352°
2026-04-26 22:38 33.94791 -118.41261 93 ft 17 kts 57°
2026-04-26 22:38 33.94811 -118.41118 94 ft 18 kts 84°
2026-04-26 22:38 33.94826 -118.40962 96 ft 19 kts 83°
2026-04-26 22:39 33.94842 -118.40796 93 ft 20 kts 82°
2026-04-26 22:39 33.94861 -118.40620 96 ft 22 kts 83°
2026-04-26 22:39 33.94879 -118.40441 93 ft 22 kts 83°
2026-04-26 22:39 33.94897 -118.40266 93 ft 20 kts 82°
2026-04-26 22:40 33.94914 -118.40112 94 ft 19 kts 83°
2026-04-26 22:40 33.94936 -118.39951 93 ft 15 kts 62°
2026-04-26 22:40 33.95028 -118.39928 93 ft 16 kts 319°
2026-04-26 22:40 33.95039 -118.39982 94 ft 0 kts 264°
2026-04-26 22:41 33.95039 -118.39983 94 ft 0 kts 264°
2026-04-26 22:41 33.95031 -118.40061 93 ft 35 kts 263°
2026-04-26 22:41 33.94969 -118.40656 97 ft 107 kts 263°
2026-04-26 22:41 33.94854 -118.41781 197 ft 157 kts 259°
2026-04-26 22:42 33.94748 -118.43074 1156 ft 149 kts 263°
2026-04-26 22:42 33.94637 -118.44321 2050 ft 154 kts 262°
2026-04-26 22:42 33.94484 -118.45635 2799 ft 163 kts 264°
2026-04-26 22:42 33.94341 -118.47135 3080 ft 195 kts 267°
2026-04-26 22:43 33.94276 -118.48872 3412 ft 216 kts 268°
2026-04-26 22:43 33.94225 -118.50767 3815 ft 237 kts 268°
2026-04-26 22:43 33.94097 -118.52811 4470 ft 249 kts 265°
2026-04-26 22:43 33.93931 -118.54843 4876 ft 242 kts 265°
2026-04-26 22:44 33.93767 -118.56838 4973 ft 244 kts 265°
2026-04-26 22:44 33.93600 -118.58915 5001 ft 251 kts 265°
2026-04-26 22:44 33.93435 -118.60996 4984 ft 247 kts 265°
2026-04-26 22:44 33.93272 -118.63050 4987 ft 244 kts 265°
2026-04-26 22:45 33.93112 -118.65093 4996 ft 246 kts 265°
2026-04-26 22:45 33.92952 -118.67157 4984 ft 248 kts 265°
2026-04-26 22:45 33.92793 -118.69198 5236 ft 242 kts 266°
2026-04-26 22:45 33.92634 -118.71252 5695 ft 247 kts 266°
2026-04-26 22:46 33.92474 -118.73311 6200 ft 249 kts 266°
2026-04-26 22:46 33.92313 -118.75392 6702 ft 255 kts 266°
2026-04-26 22:46 33.92148 -118.77491 7262 ft 248 kts 266°
2026-04-26 22:46 33.91984 -118.79580 7940 ft 254 kts 265°
2026-04-26 22:47 33.91816 -118.81721 8637 ft 259 kts 265°
2026-04-26 22:47 33.91670 -118.83891 9332 ft 261 kts 269°
2026-04-26 22:47 33.91708 -118.86079 10034 ft 262 kts 272°
2026-04-26 22:47 33.91800 -118.88313 10478 ft 277 kts 273°
2026-04-26 22:48 33.91899 -118.90743 10660 ft 303 kts 272°
2026-04-26 22:48 33.91992 -118.93370 10982 ft 322 kts 272°
2026-04-26 22:48 33.92077 -118.96094 11650 ft 329 kts 272°
2026-04-26 22:48 33.92159 -118.98868 12399 ft 333 kts 272°
2026-04-26 22:49 33.92452 -119.01641 13168 ft 338 kts 286°
2026-04-26 22:49 33.93450 -119.04220 13951 ft 342 kts 299°
2026-04-26 22:49 33.94723 -119.06671 14648 ft 347 kts 301°
2026-04-26 22:49 33.96044 -119.09126 15292 ft 352 kts 301°
2026-04-26 22:50 33.97371 -119.11623 15967 ft 356 kts 300°
2026-04-26 22:50 33.98693 -119.14160 16649 ft 360 kts 300°
2026-04-26 22:50 34.00021 -119.16733 17310 ft 364 kts 300°
2026-04-26 22:50 34.01542 -119.19146 17917 ft 372 kts 315°
2026-04-26 22:51 34.03624 -119.21034 18606 ft 376 kts 322°
2026-04-26 22:51 34.05782 -119.22846 19214 ft 379 kts 322°
2026-04-26 22:51 34.07951 -119.24669 19796 ft 381 kts 322°
2026-04-26 22:51 34.10138 -119.26520 20284 ft 387 kts 321°
2026-04-26 22:52 34.12345 -119.28403 20849 ft 389 kts 321°
2026-04-26 22:52 34.14560 -119.30300 21452 ft 391 kts 321°
2026-04-26 22:52 34.16788 -119.32214 21996 ft 394 kts 321°
2026-04-26 22:52 34.19031 -119.34146 22529 ft 398 kts 321°
2026-04-26 22:53 34.21289 -119.36094 23071 ft 401 kts 322°
2026-04-26 22:53 34.23573 -119.38064 23516 ft 406 kts 321°
2026-04-26 22:53 34.25880 -119.40058 23941 ft 409 kts 321°
2026-04-26 22:53 34.28200 -119.42064 24411 ft 410 kts 321°
2026-04-26 22:54 34.30496 -119.44050 24870 ft 411 kts 321°
2026-04-26 22:54 34.32829 -119.46070 25300 ft 413 kts 321°
2026-04-26 22:54 34.35172 -119.48100 25719 ft 416 kts 321°
2026-04-26 22:54 34.37534 -119.50147 26126 ft 418 kts 321°
2026-04-26 22:55 34.39909 -119.52207 26545 ft 420 kts 321°
2026-04-26 22:55 34.42228 -119.54367 26903 ft 421 kts 315°
2026-04-26 22:55 34.44337 -119.56818 27300 ft 421 kts 311°
2026-04-26 22:55 34.46373 -119.59376 27695 ft 422 kts 310°
2026-04-26 22:56 34.48393 -119.61968 28097 ft 424 kts 310°
2026-04-26 22:56 34.50429 -119.64572 28427 ft 427 kts 310°
2026-04-26 22:56 34.52492 -119.67182 28808 ft 429 kts 310°
2026-04-26 22:56 34.54575 -119.69787 29189 ft 430 kts 310°
2026-04-26 22:57 34.56674 -119.72393 29551 ft 432 kts 310°
2026-04-26 22:57 34.58783 -119.75002 29907 ft 433 kts 310°
2026-04-26 22:57 34.60875 -119.77588 29979 ft 438 kts 310°
2026-04-26 22:58 34.65145 -119.82864 30007 ft 436 kts 310°
2026-04-26 22:58 34.69372 -119.88100 29984 ft 433 kts 310°
2026-04-26 22:59 34.73587 -119.93326 29997 ft 432 kts 310°
2026-04-26 22:59 34.77794 -119.98547 30014 ft 431 kts 310°
2026-04-26 23:00 34.81974 -120.03749 30018 ft 432 kts 310°
2026-04-26 23:00 34.86178 -120.08990 30028 ft 433 kts 310°
2026-04-26 23:01 34.90398 -120.14257 30045 ft 435 kts 311°
2026-04-26 23:01 34.94625 -120.19538 30044 ft 435 kts 311°
2026-04-26 23:02 34.98857 -120.24841 30040 ft 437 kts 310°
2026-04-26 23:02 35.03099 -120.30171 30025 ft 438 kts 311°
2026-04-26 23:03 35.07348 -120.35496 30056 ft 438 kts 311°
2026-04-26 23:03 35.11666 -120.40693 30036 ft 440 kts 314°
2026-04-26 23:04 35.16205 -120.45705 30011 ft 439 kts 315°
2026-04-26 23:04 35.20730 -120.50703 30014 ft 438 kts 314°
2026-04-26 23:05 35.25161 -120.55655 30016 ft 416 kts 314°
2026-04-26 23:05 35.27252 -120.58000 30012 ft 401 kts 314°
2026-04-26 23:05 35.29311 -120.60320 30027 ft 401 kts 314°
2026-04-26 23:06 35.33405 -120.64945 30022 ft 398 kts 314°
2026-04-26 23:06 35.37470 -120.69541 30023 ft 397 kts 314°
2026-04-26 23:07 35.41528 -120.74127 30049 ft 397 kts 314°
2026-04-26 23:07 35.45598 -120.78735 30043 ft 398 kts 314°
2026-04-26 23:08 35.49722 -120.83288 30040 ft 400 kts 317°
2026-04-26 23:08 35.54144 -120.87402 30033 ft 402 kts 320°
2026-04-26 23:09 35.58661 -120.91476 30052 ft 403 kts 320°
2026-04-26 23:09 35.63154 -120.95596 30025 ft 402 kts 319°
2026-04-26 23:10 35.67623 -120.99744 30029 ft 401 kts 319°
2026-04-26 23:10 35.72073 -121.03901 30029 ft 402 kts 319°
2026-04-26 23:11 35.76622 -121.08144 30043 ft 416 kts 319°
2026-04-26 23:11 35.78938 -121.10309 29917 ft 419 kts 319°
2026-04-26 23:11 35.81253 -121.12477 29612 ft 416 kts 319°
2026-04-26 23:11 35.83517 -121.14598 29326 ft 412 kts 319°
2026-04-26 23:12 35.85791 -121.16729 29008 ft 410 kts 319°
2026-04-26 23:12 35.88060 -121.18857 28630 ft 409 kts 319°
2026-04-26 23:12 35.90323 -121.20982 28280 ft 408 kts 319°
2026-04-26 23:12 35.92577 -121.23099 27945 ft 406 kts 319°
2026-04-26 23:13 35.94824 -121.25212 27598 ft 405 kts 319°
2026-04-26 23:13 35.97061 -121.27316 27252 ft 402 kts 319°
2026-04-26 23:13 35.99283 -121.29408 26907 ft 400 kts 319°
2026-04-26 23:13 36.01492 -121.31490 26570 ft 397 kts 319°
2026-04-26 23:14 36.03686 -121.33557 26246 ft 395 kts 319°
2026-04-26 23:14 36.05867 -121.35613 25922 ft 392 kts 319°
2026-04-26 23:14 36.08037 -121.37570 25602 ft 392 kts 322°
2026-04-26 23:14 36.10322 -121.39396 25300 ft 390 kts 324°
2026-04-26 23:15 36.12621 -121.41151 24975 ft 388 kts 324°
2026-04-26 23:15 36.14916 -121.42890 24670 ft 386 kts 324°
2026-04-26 23:15 36.17199 -121.44631 24353 ft 384 kts 324°
2026-04-26 23:15 36.19456 -121.46366 24054 ft 381 kts 324°
2026-04-26 23:16 36.21702 -121.48106 23763 ft 380 kts 324°
2026-04-26 23:16 36.23937 -121.49845 23427 ft 379 kts 323°
2026-04-26 23:16 36.26157 -121.51584 23054 ft 377 kts 323°
2026-04-26 23:16 36.27626 -121.52738 22813 ft 375 kts 324°
2026-04-26 23:17 36.29832 -121.54461 22479 ft 374 kts 324°
2026-04-26 23:17 36.32028 -121.56174 22121 ft 372 kts 324°
2026-04-26 23:17 36.34210 -121.57884 21768 ft 370 kts 324°
2026-04-26 23:17 36.36376 -121.59582 21437 ft 367 kts 324°
2026-04-26 23:18 36.38533 -121.61271 21110 ft 365 kts 324°
2026-04-26 23:18 36.40678 -121.62954 20781 ft 364 kts 324°
2026-04-26 23:18 36.42810 -121.64629 20475 ft 362 kts 324°
2026-04-26 23:18 36.44925 -121.66290 20214 ft 356 kts 324°
2026-04-26 23:19 36.47030 -121.67945 20107 ft 360 kts 324°
2026-04-26 23:19 36.49139 -121.69605 20051 ft 357 kts 324°
2026-04-26 23:19 36.51234 -121.71256 19867 ft 357 kts 324°
2026-04-26 23:19 36.53327 -121.72909 19619 ft 355 kts 324°
2026-04-26 23:20 36.55402 -121.74548 19358 ft 353 kts 324°
2026-04-26 23:20 36.57479 -121.76193 18912 ft 355 kts 324°
2026-04-26 23:20 36.59572 -121.77850 18457 ft 356 kts 324°
2026-04-26 23:20 36.61638 -121.79487 17940 ft 355 kts 324°
2026-04-26 23:21 36.63719 -121.81136 17411 ft 354 kts 324°
2026-04-26 23:21 36.65799 -121.82785 16879 ft 353 kts 324°
2026-04-26 23:21 36.67871 -121.84429 16395 ft 351 kts 324°
2026-04-26 23:21 36.69925 -121.86060 15952 ft 349 kts 324°
2026-04-26 23:22 36.71961 -121.87677 15580 ft 345 kts 324°
2026-04-26 23:22 36.74003 -121.89238 15174 ft 344 kts 330°
2026-04-26 23:22 36.76256 -121.90129 14761 ft 346 kts 345°
2026-04-26 23:22 36.78613 -121.90737 14262 ft 347 kts 345°
2026-04-26 23:23 36.80977 -121.91360 13725 ft 348 kts 345°
2026-04-26 23:23 36.83347 -121.92000 13142 ft 348 kts 345°
2026-04-26 23:23 36.85716 -121.92651 12562 ft 348 kts 345°
2026-04-26 23:23 36.88081 -121.93308 12001 ft 349 kts 345°
2026-04-26 23:24 36.90445 -121.93968 11452 ft 348 kts 345°
2026-04-26 23:24 36.92795 -121.94625 11148 ft 341 kts 345°
2026-04-26 23:24 36.95070 -121.95263 11045 ft 328 kts 344°
2026-04-26 23:24 36.97223 -121.96001 11023 ft 313 kts 340°
2026-04-26 23:25 36.99270 -121.96803 10844 ft 305 kts 340°
2026-04-26 23:25 37.01258 -121.97603 10608 ft 295 kts 339°
2026-04-26 23:25 37.03176 -121.98373 10376 ft 284 kts 340°
2026-04-26 23:25 37.05027 -121.99109 10166 ft 276 kts 339°
2026-04-26 23:26 37.06836 -121.99824 9965 ft 271 kts 339°
2026-04-26 23:26 37.08634 -122.00533 9752 ft 271 kts 340°
2026-04-26 23:26 37.10440 -122.01243 9484 ft 273 kts 340°
2026-04-26 23:26 37.12243 -122.01953 9239 ft 277 kts 340°
2026-04-26 23:27 37.14094 -122.02684 8968 ft 279 kts 339°
2026-04-26 23:27 37.15947 -122.03411 8715 ft 279 kts 340°
2026-04-26 23:27 37.17794 -122.04134 8451 ft 277 kts 340°
2026-04-26 23:27 37.19627 -122.04852 8196 ft 275 kts 340°
2026-04-26 23:28 37.21444 -122.05563 8028 ft 271 kts 339°
2026-04-26 23:28 37.23229 -122.06258 7990 ft 266 kts 340°
2026-04-26 23:28 37.25000 -122.06898 8001 ft 265 kts 340°
2026-04-26 23:28 37.26777 -122.07606 7997 ft 270 kts 340°
2026-04-26 23:29 37.28577 -122.08370 7760 ft 278 kts 338°
2026-04-26 23:29 37.30442 -122.09128 7385 ft 283 kts 340°
2026-04-26 23:29 37.32332 -122.09861 7024 ft 285 kts 341°
2026-04-26 23:29 37.34214 -122.10593 6626 ft 288 kts 341°
2026-04-26 23:30 37.36156 -122.11351 6240 ft 289 kts 341°
2026-04-26 23:30 37.38078 -122.12097 5997 ft 286 kts 341°
2026-04-26 23:30 37.39969 -122.12756 5535 ft 290 kts 343°
2026-04-26 23:30 37.41919 -122.13412 5173 ft 290 kts 341°
2026-04-26 23:31 37.43867 -122.14070 4812 ft 290 kts 343°
2026-04-26 23:31 37.45808 -122.14729 4429 ft 285 kts 340°
2026-04-26 23:31 37.47690 -122.15371 4099 ft 275 kts 343°
2026-04-26 23:31 37.49537 -122.16002 3602 ft 273 kts 341°
2026-04-26 23:32 37.51325 -122.16612 3352 ft 259 kts 340°
2026-04-26 23:32 37.52951 -122.17351 3091 ft 237 kts 321°
2026-04-26 23:32 37.53948 -122.18817 2903 ft 211 kts 299°
2026-04-26 23:32 37.54678 -122.20343 2636 ft 195 kts 297°
2026-04-26 23:33 37.55296 -122.21793 2380 ft 181 kts 296°
2026-04-26 23:33 37.55856 -122.23138 2158 ft 165 kts 294°
2026-04-26 23:33 37.56356 -122.24336 2002 ft 146 kts 294°
2026-04-26 23:33 37.56823 -122.25455 1804 ft 143 kts 294°
2026-04-26 23:34 37.57290 -122.26572 1625 ft 145 kts 295°
2026-04-26 23:34 37.57756 -122.27686 1450 ft 143 kts 294°
2026-04-26 23:34 37.58214 -122.28781 1264 ft 140 kts 293°
2026-04-26 23:34 37.58674 -122.29881 1084 ft 144 kts 294°
2026-04-26 23:35 37.59131 -122.30973 900 ft 141 kts 296°
2026-04-26 23:35 37.59581 -122.32047 738 ft 134 kts 296°
2026-04-26 23:35 37.60006 -122.33062 560 ft 129 kts 297°
2026-04-26 23:35 37.60439 -122.34096 411 ft 136 kts 295°
2026-04-26 23:36 37.60882 -122.35151 216 ft 136 kts 295°
2026-04-26 23:36 37.61314 -122.36192 52 ft 131 kts 294°
2026-04-26 23:36 37.61684 -122.37090 21 ft 91 kts 303°
2026-04-26 23:36 37.61889 -122.37581 21 ft 51 kts 295°
2026-04-26 23:37 37.61989 -122.37849 21 ft 22 kts 274°
2026-04-26 23:37 37.61964 -122.37940 21 ft 10 kts 242°
2026-04-26 23:37 37.61964 -122.38023 21 ft 10 kts 290°
2026-04-26 23:37 37.61994 -122.38100 21 ft 10 kts 301°
2026-04-26 23:38 37.62028 -122.38172 21 ft 9 kts 300°
2026-04-26 23:38 37.62057 -122.38243 21 ft 9 kts 284°
2026-04-26 23:38 37.62030 -122.38313 21 ft 9 kts 248°
2026-04-26 23:38 37.62042 -122.38389 23 ft 9 kts 296°
2026-04-26 23:39 37.62073 -122.38458 23 ft 9 kts 298°
2026-04-26 23:39 37.62104 -122.38533 22 ft 10 kts 298°
2026-04-26 23:39 37.62139 -122.38616 21 ft 11 kts 297°
2026-04-26 23:39 37.62176 -122.38708 21 ft 12 kts 297°
2026-04-26 23:40 37.62216 -122.38803 23 ft 12 kts 299°
2026-04-26 23:40 37.62257 -122.38898 21 ft 13 kts 298°
2026-04-26 23:40 37.62251 -122.39006 21 ft 13 kts 253°
2026-04-26 23:40 37.62220 -122.39108 22 ft 12 kts 225°
2026-04-26 23:41 37.62145 -122.39163 22 ft 12 kts 209°
2026-04-26 23:41 37.62069 -122.39211 21 ft 12 kts 194°
2026-04-26 23:41 37.62011 -122.39147 21 ft 13 kts 118°
2026-04-26 23:41 37.61967 -122.39042 21 ft 14 kts 116°
2026-04-26 23:42 37.61926 -122.38940 21 ft 5 kts 110°
2026-04-26 23:42 37.61971 -122.38904 21 ft 5 kts 25°
2026-04-26 23:42 37.61997 -122.38888 21 ft 2 kts 28°
2026-04-26 23:43 37.61998 -122.38887 21 ft 0 kts 28°